Location: Angwan Shehu
(11.2514°N, 7.4613°E)
Time: 23:59:17
(UTC+00:00)

Tiros 1 - Pass Details

Date: 28 April 2021
Orbit: 630 x 664 km, 48.4° (Epoch: 06 May)

Event Time Altitude Azimuth Distance (km) Brightness Sun altitude
Rises 04:37:13 0° 260° (W) 2,971 - -9.2°
Exits shadow 04:39:57 - 279° (W) 2,217 9.3 -8.6°
Reaches altitude 10° 04:40:45 10° 287° (WNW) 2,053 9.2 -8.4°
Maximum altitude 04:43:02 13° 316° (NW) 1,832 9.2 -7.8°
Drops below altitude 10° 04:45:18 10° 345° (NNW) 2,042 9.7 -7.3°
Sets 04:48:50 0° 12° (NNE) 2,942 10.9 -6.5°
